This is the latest recevied weather packets stored in our database for station/object KC4GS-13. If no packets are shown the sender has not sent any weather packets the latest 10 day(s).
| Time | Temp. | Humidity | Pressure | Rain* | Wind** | Luminosity | Snow |
|---|---|---|---|---|---|---|---|
| 1778141458 | 20° C | 97% | 1012.7 hPa | 3.05 mm | - | 0 W/m² | - |
| 1778141154 | 20° C | 97% | 1012.7 hPa | 1.27 mm | - | 0 W/m² | - |
| 1778140851 | 20° C | 97% | 1012.3 hPa | 1.27 mm | - | 0 W/m² | - |
| 1778140551 | 20° C | 97% | 1012.6 hPa | 3.05 mm | - | 0 W/m² | - |
| 1778140248 | 20° C | 97% | 1012.9 hPa | 4.83 mm | - | 0 W/m² | - |
| 1778139945 | 20° C | 97% | 1012.6 hPa | 6.1 mm | - | 0 W/m² | - |
| 1778139644 | 20° C | 97% | 1012.6 hPa | 6.1 mm | - | 0 W/m² | - |
| 1778139339 | 20° C | 96% | 1012.7 hPa | 3.05 mm | - | 0 W/m² | - |
| 1778139036 | 20° C | 96% | 1012.8 hPa | 1.78 mm | - | 0 W/m² | - |
| 1778138733 | 20° C | 96% | 1012.7 hPa | 1.78 mm | - | 0 W/m² | - |
| 1778138431 | 20° C | 96% | 1012.9 hPa | 1.27 mm | - | 0 W/m² | - |
| 1778138128 | 20° C | 95% | 1013.3 hPa | 3.05 mm | - | 0 W/m² | - |
| 1778137825 | 20° C | 95% | 1013.3 hPa | 3.05 mm | - | 0 W/m² | - |
| 1778137522 | 20° C | 95% | 1013.2 hPa | 1.27 mm | - | 0 W/m² | - |
| 1778137219 | 20.56° C | 95% | 1013.1 hPa | 1.78 mm | - | 0 W/m² | - |
| 1778136915 | 20.56° C | 94% | 1012.9 hPa | 1.78 mm | - | 0 W/m² | - |
| 1778136612 | 20.56° C | 94% | 1013.1 hPa | 0 mm | - | 0 W/m² | - |
| 1778136310 | 20.56° C | 93% | 1013 hPa | 1.27 mm | - | 0 W/m² | - |
| 1778136009 | 20.56° C | 92% | 1013.2 hPa | 3.05 mm | - | 0 W/m² | - |
| 1778135705 | 21.11° C | 91% | 1013.5 hPa | 1.78 mm | - | 0 W/m² | - |
| 1778135403 | 21.11° C | 90% | 1013.6 hPa | 1.27 mm | - | 0 W/m² | - |
| 1778135099 | 21.67° C | 88% | 1013.5 hPa | 3.05 mm | - | 0 W/m² | - |
| 1778134796 | 21.67° C | 86% | 1013.3 hPa | 1.78 mm | - | 0 W/m² | - |
| 1778134494 | 22.22° C | 84% | 1013.3 hPa | 0 mm | - | 0 W/m² | - |
| 1778134192 | 22.22° C | 82% | 1013.2 hPa | 0 mm | - | 0 W/m² | - |
* Rain latest hour (hover to see other rain measurements)
** Current wind speed in m/s (hover to see current wind gust speed)